When you browse on this site, cookies collect data to enhance your experience and personalize the content and advertising you see.
Visit our Privacy Policy to learn more. By continuing to use the site, you agree to this use of cookies and data.
  • In Portugal
  • List of Countries
  • For 7 days
  • Water Temperature
  • Satellite Maps
  • Weather Map
  • Weather Widgets
  • user-avatar
    Login

    Hourly Weather Shahtarsk

    Today, 23 May, Thursday

    Time Temperature Precipitation Wind Pressure Humidity
    00:00 +13°C° 0 mm 3 mps 737 mmHg 95%
    01:00 +13°C° 0 mm 3 mps 736 mmHg 94%
    02:00 +13°C° 0 mm 2 mps 736 mmHg 94%
    03:00 +13°C° 0 mm 2 mps 736 mmHg 94%
    04:00 +13°C° 0 mm 2 mps 736 mmHg 92%
    05:00 +14°C° 0 mm 2 mps 736 mmHg 91%
    06:00 +14°C° 0 mm 2 mps 736 mmHg 89%
    07:00 +16°C° 0.1 mm 3 mps 736 mmHg 82%
    08:00 +17°C° 0.1 mm 3 mps 736 mmHg 74%
    09:00 +19°C° 0.1 mm 4 mps 736 mmHg 67%
    10:00 +20°C° 0.4 mm 4 mps 736 mmHg 63%
    11:00 +21°C° 0.4 mm 4 mps 736 mmHg 60%
    12:00 +22°C° 0.4 mm 5 mps 735 mmHg 56%
    13:00 +22°C° 0.5 mm 5 mps 735 mmHg 56%
    14:00 +22°C° 0.5 mm 5 mps 735 mmHg 56%
    15:00 +22°C° 0.5 mm 6 mps 735 mmHg 56%
    16:00 +22°C° 0.3 mm 5 mps 735 mmHg 60%
    17:00 +21°C° 0.3 mm 4 mps 735 mmHg 64%
    18:00 +21°C° 0.3 mm 4 mps 735 mmHg 67%
    19:00 +19°C° 0.2 mm 4 mps 735 mmHg 72%
    20:00 +18°C° 0.2 mm 3 mps 735 mmHg 77%
    21:00 +17°C° 0.2 mm 3 mps 735 mmHg 82%
    22:00 +16°C° 0 mm 3 mps 735 mmHg 83%
    23:00 +16°C° 0 mm 2 mps 735 mmHg 85%

    Tomorrow, 24 May, Friday

    Time Temperature Precipitation Wind Pressure Humidity
    00:00 +15°C° 0 mm 2 mps 735 mmHg 87%
    01:00 +15°C° 0 mm 2 mps 735 mmHg 87%
    02:00 +15°C° 0 mm 2 mps 735 mmHg 88%
    03:00 +14°C° 0 mm 2 mps 735 mmHg 89%
    04:00 +15°C° 0 mm 2 mps 736 mmHg 89%
    05:00 +15°C° 0 mm 2 mps 736 mmHg 88%
    06:00 +16°C° 0 mm 1 mps 736 mmHg 87%
    07:00 +18°C° 0 mm 1 mps 736 mmHg 80%
    08:00 +19°C° 0 mm 2 mps 736 mmHg 73%
    09:00 +21°C° 0 mm 2 mps 737 mmHg 65%
    10:00 +23°C° 0 mm 2 mps 737 mmHg 60%
    11:00 +24°C° 0 mm 2 mps 737 mmHg 55%
    12:00 +25°C° 0 mm 2 mps 737 mmHg 50%
    13:00 +26°C° 0.1 mm 2 mps 737 mmHg 49%
    14:00 +26°C° 0.1 mm 2 mps 737 mmHg 49%
    15:00 +26°C° 0.1 mm 3 mps 737 mmHg 49%
    16:00 +26°C° 0.6 mm 3 mps 736 mmHg 54%
    17:00 +25°C° 0.6 mm 3 mps 736 mmHg 59%
    18:00 +24°C° 0.6 mm 2 mps 736 mmHg 64%
    19:00 +21°C° 0.7 mm 2 mps 736 mmHg 69%
    20:00 +20°C° 0.7 mm 2 mps 736 mmHg 73%
    21:00 +18°C° 0.7 mm 2 mps 736 mmHg 78%
    22:00 +19°C° 0 mm 1 mps 736 mmHg 78%
    23:00 +18°C° 0 mm 1 mps 736 mmHg 77%

    Day after tomorrow, 25 May, Saturday

    Time Temperature Precipitation Wind Pressure Humidity
    00:00 +18°C° 0 mm 1 mps 736 mmHg 77%
    01:00 +16°C° 0 mm 1 mps 736 mmHg 77%
    02:00 +16°C° 0 mm 1 mps 736 mmHg 76%
    03:00 +15°C° 0 mm 1 mps 736 mmHg 76%
    04:00 +16°C° 0 mm 1 mps 736 mmHg 74%
    05:00 +16°C° 0 mm 1 mps 736 mmHg 73%
    06:00 +16°C° 0 mm 1 mps 736 mmHg 71%
    07:00 +19°C° 0.1 mm 1 mps 736 mmHg 68%
    08:00 +20°C° 0.1 mm 2 mps 736 mmHg 64%
    09:00 +23°C° 0.1 mm 2 mps 736 mmHg 61%
    10:00 +24°C° 0.8 mm 2 mps 736 mmHg 57%
    11:00 +25°C° 0.8 mm 2 mps 736 mmHg 54%
    12:00 +26°C° 0.8 mm 2 mps 736 mmHg 51%
    13:00 +26°C° 0.3 mm 2 mps 735 mmHg 51%
    14:00 +26°C° 0.3 mm 2 mps 735 mmHg 52%
    15:00 +26°C° 0.3 mm 2 mps 735 mmHg 53%
    16:00 +24°C° 3.5 mm 2 mps 734 mmHg 63%
    17:00 +21°C° 3.5 mm 3 mps 734 mmHg 74%
    18:00 +19°C° 3.5 mm 3 mps 734 mmHg 85%
    19:00 +19°C° 3.1 mm 3 mps 734 mmHg 86%
    20:00 +18°C° 3.1 mm 2 mps 734 mmHg 87%
    21:00 +19°C° 3.1 mm 1 mps 734 mmHg 88%
    22:00 +17°C° 3.4 mm 2 mps 734 mmHg 89%
    23:00 +17°C° 3.4 mm 3 mps 734 mmHg 89%

    26 May, Sunday

    Time Temperature Precipitation Wind Pressure Humidity
    00:00 +17°C° 3.4 mm 4 mps 733 mmHg 90%
    01:00 +16°C° 6.7 mm 5 mps 733 mmHg 90%
    02:00 +16°C° 6.7 mm 5 mps 733 mmHg 89%
    03:00 +16°C° 6.7 mm 5 mps 733 mmHg 89%
    04:00 +15°C° 3.2 mm 5 mps 734 mmHg 89%
    05:00 +15°C° 3.2 mm 4 mps 734 mmHg 89%
    06:00 +16°C° 3.2 mm 3 mps 734 mmHg 89%
    07:00 +17°C° 0.6 mm 4 mps 734 mmHg 89%
    08:00 +17°C° 0.6 mm 4 mps 734 mmHg 88%
    09:00 +18°C° 0.6 mm 4 mps 735 mmHg 87%
    10:00 +19°C° 0.6 mm 5 mps 735 mmHg 82%
    11:00 +20°C° 0.6 mm 5 mps 735 mmHg 76%
    12:00 +21°C° 0.6 mm 5 mps 736 mmHg 70%
    13:00 +22°C° 0.7 mm 5 mps 735 mmHg 69%
    14:00 +22°C° 0.7 mm 6 mps 735 mmHg 67%
    15:00 +23°C° 0.7 mm 6 mps 735 mmHg 66%
    16:00 +23°C° 0.4 mm 6 mps 735 mmHg 68%
    17:00 +22°C° 0.4 mm 5 mps 735 mmHg 71%
    18:00 +22°C° 0.4 mm 5 mps 735 mmHg 73%
    19:00 +21°C° 0 mm 4 mps 736 mmHg 76%
    20:00 +20°C° 0 mm 4 mps 736 mmHg 80%
    21:00 +19°C° 0 mm 3 mps 736 mmHg 83%
    22:00 +18°C° 0 mm 3 mps 737 mmHg 85%
    23:00 +18°C° 0 mm 3 mps 737 mmHg 86%

    27 May, Monday

    Time Temperature Precipitation Wind Pressure Humidity
    00:00 +17°C° 0 mm 3 mps 737 mmHg 87%
    01:00 +17°C° 0 mm 3 mps 738 mmHg 88%
    02:00 +16°C° 0 mm 3 mps 738 mmHg 89%
    03:00 +16°C° 0 mm 2 mps 738 mmHg 91%
    04:00 +16°C° 0 mm 2 mps 739 mmHg 90%
    05:00 +17°C° 0 mm 2 mps 739 mmHg 90%
    06:00 +17°C° 0 mm 2 mps 739 mmHg 89%
    07:00 +18°C° 0 mm 3 mps 740 mmHg 82%
    08:00 +20°C° 0 mm 3 mps 740 mmHg 75%
    09:00 +22°C° 0 mm 4 mps 741 mmHg 68%
    10:00 +23°C° 0 mm 4 mps 741 mmHg 63%
    11:00 +25°C° 0 mm 4 mps 742 mmHg 59%
    12:00 +26°C° 0 mm 4 mps 742 mmHg 55%
    13:00 +26°C° 0 mm 4 mps 742 mmHg 53%
    14:00 +27°C° 0 mm 3 mps 742 mmHg 51%
    15:00 +27°C° 0 mm 3 mps 742 mmHg 49%
    16:00 +27°C° 0 mm 3 mps 742 mmHg 54%
    17:00 +27°C° 0 mm 3 mps 742 mmHg 58%
    18:00 +26°C° 0 mm 2 mps 742 mmHg 62%
    19:00 +25°C° 0 mm 3 mps 742 mmHg 68%
    20:00 +22°C° 0 mm 3 mps 742 mmHg 74%
    21:00 +20°C° 0 mm 3 mps 742 mmHg 80%
    22:00 +19°C° 0 mm 3 mps 743 mmHg 82%
    23:00 +19°C° 0 mm 2 mps 743 mmHg 83%

    28 May, Tuesday

    Time Temperature Precipitation Wind Pressure Humidity
    00:00 +18°C° 0 mm 2 mps 743 mmHg 84%
    01:00 +19°C° 0 mm 1 mps 743 mmHg 83%
    02:00 +18°C° 0 mm 1 mps 743 mmHg 83%
    03:00 +18°C° 0 mm 1 mps 743 mmHg 82%
    04:00 +18°C° 0 mm 1 mps 743 mmHg 82%
    05:00 +18°C° 0 mm 1 mps 743 mmHg 82%
    06:00 +19°C° 0 mm 1 mps 743 mmHg 81%
    07:00 +19°C° 0 mm 2 mps 743 mmHg 76%
    08:00 +21°C° 0 mm 2 mps 743 mmHg 70%
    09:00 +22°C° 0 mm 3 mps 743 mmHg 65%
    10:00 +24°C° 0 mm 3 mps 743 mmHg 62%
    11:00 +26°C° 0 mm 4 mps 743 mmHg 58%
    12:00 +27°C° 0 mm 4 mps 743 mmHg 55%
    13:00 +27°C° 0 mm 4 mps 743 mmHg 54%
    14:00 +28°C° 0 mm 4 mps 743 mmHg 53%
    15:00 +28°C° 0 mm 4 mps 743 mmHg 53%
    16:00 +28°C° 0 mm 4 mps 742 mmHg 56%
    17:00 +28°C° 0 mm 3 mps 742 mmHg 60%
    18:00 +28°C° 0 mm 3 mps 742 mmHg 63%
    19:00 +26°C° 0 mm 3 mps 742 mmHg 67%
    20:00 +24°C° 0 mm 3 mps 742 mmHg 71%
    21:00 +21°C° 0 mm 2 mps 742 mmHg 75%
    22:00 +21°C° 0 mm 2 mps 741 mmHg 75%
    23:00 +20°C° 0 mm 2 mps 741 mmHg 76%
    Show more